Location: Tel Aviv
(32.0670°N, 34.7670°E)
Time: 02:26:29
(UTC+02:00)

Envisat - Pass Details

Date: 07 December 2021
Orbit: 764 x 766 km, 98.2° (Epoch: 26 January)

Event Time Altitude Azimuth Distance (km) Brightness Sun altitude
Rises 16:52:51 0° 199° (SSW) 3,216 7.0 -4.0°
Reaches altitude 10° 16:55:37 10° 214° (SW) 2,294 6.5 -4.5°
Maximum altitude 16:59:29 22° 265° (W) 1,627 5.9 -5.3°
Drops below altitude 10° 17:03:23 10° 315° (NW) 2,305 5.8 -6.1°
Sets 17:06:12 0° 330° (NNW) 3,235 6.3 -6.6°
